Regional Weather Roundup
Issued by NWS Green Bay, WI

Home | Current Version | Previous Version | Graphics & Text | Print | Product List | Glossary Off
Versions: 1 2 3 4 5 6 7 8 9 10 11 12 13 14 15 16 17 18 19 20 21 22 23 24 25 26 27 28 29 30 31 32 33 34 35 36 37 38 39 40 41 42 43 44 45 46 47 48 49 50

000
ASUS43 KGRB 211311
RWRGRB

NORTH-CENTRAL AND NORTHEAST WISCONSIN REGIONAL WEATHER ROUNDUP
NATIONAL WEATHER SERVICE GREEN BAY WI
800 AM CDT THU SEP 21 2017

WIZ005-009-010>012-018-019-211400-
NORTH CENTRAL WISCONSIN

CITY           SKY/WX    TMP DP  RH WIND       PRES   REMARKS
IRONWOOD       SUNNY     46  45  96 CALM      30.06S
MANITOWISH WTR SUNNY     49  49 100 CALM      30.06S
ARBOR VITAE    SUNNY     53  52  95 CALM      30.06S
EAGLE RIVER    SUNNY     50  50 100 CALM      30.07R
LAND O LAKES   SUNNY     49  49 100 CALM      30.09S FOG
RHINELANDER    SUNNY     55  55 100 CALM      30.07S
PHILLIPS       SUNNY     48  48 100 CALM      30.05R
ANTIGO         CLOUDY    60  57  91 NE3       30.07R
TOMAHAWK         N/A     49  48  97 CALM      30.06S FOG
MERRILL        SUNNY     54  54 100 CALM      30.06S
$$

WIZ013-073-211400-
NORTHEAST WISCONSIN

CITY           SKY/WX    TMP DP  RH WIND       PRES   REMARKS
IRON MOUNTAIN  CLOUDY    59  57  93 CALM      30.06R FOG
MARINETTE      CLOUDY    66  61  84 N7        30.03R
OCONTO         CLOUDY    66  62  86 N3        30.03R
$$

WIZ017-030-035>037-045-211400-
CENTRAL WISCONSIN

CITY           SKY/WX    TMP DP  RH WIND       PRES   REMARKS
MEDFORD        SUNNY     55  54  96 E7        30.04S
WAUSAU         MOSUNNY   60  58  92 N3        30.03S
MOSINEE        CLOUDY    61  61 100 NE5       30.05R
MARSHFIELD     PTSUNNY   60  56  86 NE9       30.02S
WISC RAPIDS    FOG       64  64 100 NE5       30.03S VSB 1/4
STEVENS POINT  CLOUDY    63  63 100 E8        30.03S
WAUPACA        CLOUDY    68  67  98 NE5       30.02S FOG
SHAWANO        CLOUDY    67  65  91 NE6       30.03S
CLINTONVILLE   NOT AVBL
WAUTOMA        FOG       67  67 100 NE7       30.02R VSB 1/2
$$

WIZ038-039-048-051-211400-
FOX VALLEY

CITY           SKY/WX    TMP DP  RH WIND       PRES   REMARKS
NWS GREEN BAY  CLOUDY    68  66  93 NE12      30.03R
APPLETON       CLOUDY    66  66 100 NE7       30.01R FOG
OSHKOSH        CLOUDY    69  68  96 NE7       30.01R FOG
FOND DU LAC    CLOUDY    70  66  87 NE5       30.01S
$$

WIZ022-050-052-211400-
EAST CENTRAL WISCONSIN

CITY           SKY/WX    TMP DP  RH WIND       PRES   REMARKS
EPHRAIM        CLOUDY    65  63  94 N7        30.01S
WASHINGTON ISL CLOUDY    65  63  94 N8        30.01R
STURGEON BAY   CLOUDY    67  66  97 N3        30.03R
MANITOWOC      CLOUDY    69  67  93 CALM      30.02R
SHEBOYGAN      CLOUDY    68  68 100 VRB3      30.02R
$$

LMZ563-521-522-541>543-211400-
LAKESHORE

STATION/POSITION TIME  TEMP    WIND        PRES    VSBY  WAVE
                       AIR SEA DIR/SP/G                  HT/PER
                 (UTC) (F)     (DEG/KT/KT) (MB)    (MI)  (FT/S)
SHEBOYGAN LKSHOR 1300   69      10/  7/  7 1015.9R
KEWAUNEE LKSHORE 1248   64      10/  1/  3 1015.6R
NORTHPORT PIER   1240   67     340/  8/ 10 1016.3R
N MID LAKE BUOY  1250   66 65  360/  8/ 10 1016.4R         3/ 6
S GREEN BAY BUOY 1300   67 66   30/ 10/ 14 1016.4
SISTER BAY LKSHO 1304   68      10/  8/ 10   N/A
MENOMINEE LKSHOR 1248   66      10/ 10/ 12 1016.2R
$$




USA.gov is the U.S. government's official web portal to all federal, state and local government web resources and services.